Regional Weather Roundup
Issued by NWS

Home | Current Version | Previous Version | Text Only | Print | Product List | Glossary On
Versions: 1 2 3 4 5 6 7 8 9 10 11 12 13 14 15 16 17 18 19 20 21 22 23 24 25 26 27 28 29 30 31 32 33 34 35 36 37 38 39 40 41 42 43 44 45 46 47 48 49 50
000
ASUS43 KOAX 241010
RWRNE

WEATHER ROUNDUP FOR NEBRASKA
NATIONAL WEATHER SERVICE OMAHA NE
500 AM CDT WED AUG 24 2016

NOTES: SATELLITE DATA IS BEING USED TO AUGMENT CLOUD COVER ABOVE
       12000 FEET.
       "FAIR" INDICATES FEW OR NO CLOUDS BELOW 12,000 FEET WITH NO
       SIGNIFICANT WEATHER AND/OR OBSTRUCTIONS TO VISIBILITY.

  * THESE STATIONS DO NOT REPORT WEATHER SUCH AS RAIN...SNOW OR FOG.

NEZ001>004-019>022-054>056-241100-
NEBRASKA PANHANDLE

CITY           SKY/WX    TMP DP  RH WIND       PRES   REMARKS
SCOTTSBLUFF    PTCLDY    57  43  59 NE8       30.12S
ALLIANCE       MOCLDY    48  44  86 N3        30.12S
CHADRON        PTCLDY    45  35  68 W9        30.12R
KIMBALL        CLOUDY    62  41  46 SE12      30.16R
SIDNEY         CLOUDY    58  46  64 S3        30.16R
$$

NEZ057>060-069>072-079>082-241100-
SOUTHWEST NEBRASKA

CITY           SKY/WX    TMP DP  RH WIND       PRES   REMARKS
NORTH PLATTE   PTCLDY    58  44  60 CALM      30.05F
IMPERIAL       CLOUDY    61  44  53 S5        30.08R
LEXINGTON      PTCLDY    56  51  84 W6        30.02S
MCCOOK         CLOUDY    62  48  60 NW5       30.02R
OGALLALA       CLOUDY    62  38  41 NE8       30.08R
$$

NEZ005>010-023>029-035>040-094-241100-
NORTH CENTRAL NEBRASKA

CITY           SKY/WX    TMP DP  RH WIND       PRES   REMARKS
VALENTINE      CLEAR     50  40  68 W9        30.07R
AINSWORTH      CLEAR     51  45  79 W5        30.07S
BROKEN BOW     CLOUDY    57  47  69 N14       30.01F
O`NEILL        CLEAR     56  48  74 NW7       30.01S
ORD            CLOUDY    57  50  77 NW9       29.99R
THEDFORD       CLOUDY    47  42  81 W3        30.10R
$$

NEZ041-046>049-061>064-073>077-083>087-241100-
SOUTH CENTRAL NEBRASKA

CITY           SKY/WX    TMP DP  RH WIND       PRES   REMARKS
GRAND ISLAND   PTCLDY    61  58  90 N7        29.97R
AURORA         PTCLDY    64  64 100 NE3       29.96S
HASTINGS       PTCLDY    64  62  93 NE6       29.97R
HEBRON         PTCLDY    68  65  89 E7        29.91F
HOLDREGE       CLOUDY    61  53  75 N7        30.00R
KEARNEY *      CLOUDY    63  52  67 N9        29.99R
YORK           PTCLDY    66  64  94 CALM      29.95S
$$

NEZ011>018-030>034-042>045-241100-
NORTHEAST NEBRASKA

CITY           SKY/WX    TMP DP  RH WIND       PRES   REMARKS
NORFOLK        CLOUDY    63  56  78 W6        29.95R
ALBION         PTCLDY    59  56  91 CALM      29.98R
BLAIR          CLOUDY    68  65  93 W6        29.91S
FREMONT        PTCLDY    66  64  94 W6        29.93S
TEKAMAH        CLEAR     68  66  93 SW9       29.90S
WAYNE          CLEAR     64  62  93 CALM      29.93R
$$

NEZ050>053-065>068-078-088>093-241100-
SOUTHEAST NEBRASKA

CITY           SKY/WX    TMP DP  RH WIND       PRES   REMARKS
LINCOLN        MOCLDY    67  63  87 CALM      29.92R
OMAHA EPPLEY   CLOUDY    68  63  84 S3        29.89S
BEATRICE       MOCLDY    67  62  85 S7        29.90F
FALLS CITY     CLOUDY    68  65  90 S6        29.89F
NEBRASKA CITY  MOCLDY    65  65 100 CALM      29.90S
PLATTSMOUTH    MOCLDY    64  63  98 CALM      29.91R
$$

NEZ044-045-051>053-067-241100-
OMAHA AREA

CITY           SKY/WX    TMP DP  RH WIND       PRES   REMARKS
OMAHA EPPLEY   CLOUDY    68  63  84 S3        29.89S
BLAIR          CLOUDY    68  65  93 W6        29.91S
FREMONT        PTCLDY    66  64  94 W6        29.93S
MILLARD        CLOUDY    67  65  93 CALM      29.91S
OFFUTT AFB     MOCLDY    64  64 100 W5        29.90R
PLATTSMOUTH    MOCLDY    64  63  98 CALM      29.91R
WAHOO          CLOUDY    67  65  91 NW3       29.92F
$$




USA.gov is the U.S. government's official web portal to all federal, state and local government web resources and services.